Regional Weather Roundup
Issued by NWS Cleveland, OH

Home | Current Version | Previous Version | Graphics & Text | Print | Product List | Glossary On
Versions: 1 2 3 4 5 6 7 8 9 10 11 12 13 14 15 16 17 18 19 20 21 22 23 24 25 26 27 28 29 30 31 32 33 34 35 36 37 38 39 40 41 42 43 44 45 46 47 48 49 50
000
ASUS41 KCLE 222010
RWRCLE
OHIO REGIONAL WEATHER ROUNDUP
NATIONAL WEATHER SERVICE CLEVELAND, OH
400 PM EDT FRI AUG 22 2014

NOTE: "FAIR" INDICATES FEW OR NO CLOUDS BELOW 12,000 FEET WITH NO
SIGNIFICANT WEATHER AND/OR OBSTRUCTIONS TO VISIBILITY.

OHZ001>008-015>018-024>027-034-035-043-044-222100-
   NORTHWEST OHIO

CITY           SKY/WX    TMP DP  RH WIND       PRES   REMARKS
DEFIANCE       CLOUDY    86  72  62 NE3       29.96S HX  92
FINDLAY        CLOUDY    83  72  69 W7        29.95S
TOLEDO EXPRESS CLOUDY    81  71  71 NE6       29.95F
TOLEDO EXEC    CLOUDY    80  71  74 E3        29.96F
LIMA           CLOUDY    82  72  71 W9        29.97S
$$

OHZ009>014-019>023-028>033-038-089-222100-
   NORTHEAST OHIO

CITY           SKY/WX    TMP DP  RH WIND       PRES   REMARKS
CLE-HOPKINS    MOSUNNY   81  71  71 N10       29.97F
CLE-LAKEFRONT  SUNNY     78  71  79 N9        29.95F
CUY CO. ARPT   MOSUNNY   81  73  78 N9        29.97F
LORAIN-ELYRIA  MOSUNNY   84  72  67 NE8       29.96F
ASHTABULA      MOSUNNY   79  72  79 N6        29.98R
AKRON-CANTON   PTSUNNY   80  67  64 W3        29.96F
WOOSTER        PTSUNNY   85  71  63 CALM      29.96F HX  90
MANSFIELD      CLOUDY    81  71  71 NW3       29.98F
YOUNGSTOWN     PTSUNNY   81  67  62 CALM      29.96F
$$

OHZ042-051>053-060>062-070>072-077>081-222100-
  SOUTHWEST OHIO

CITY           SKY/WX    TMP DP  RH WIND       PRES   REMARKS
CINC-COVINGTON CLOUDY    85  75  72 SW6       29.97F HX  93
CINC-LUNKEN    PTSUNNY   87  76  69 SW7       29.96F HX  97
HAMILTON       PTSUNNY   86  77  74 SW6       29.97F HX  97
DAYTON         CLOUDY    84  73  69 W9        29.98F HX  90
WRIGHT-PAT AFB CLOUDY    83  74  75 SW9       29.97F HX  90
DAYTON GENERAL CLOUDY    82  73  74 W6        29.97F
WILMINGTON     PTSUNNY   81  72  74 SW8       29.98F
$$

OHZ036-037-039>041-045>050-054>059-063>069-073>076-082>088-222100-
  CENTRAL AND SOUTHEAST OHIO

CITY           SKY/WX    TMP DP  RH WIND       PRES   REMARKS
COLUMBUS       CLOUDY    83  71  67 SW9       29.96F
OSU AIRPORT    PTSUNNY   82  71  69 W6        29.96F
BOLTON FIELD   MOSUNNY   81  73  78 S7        29.98F
RICKENBACK AFB PTSUNNY   83  67  58 SW6       29.96F
NEWARK         MOSUNNY   81  72  74 SW6       29.97S
MARION         CLOUDY    83  71  67 SW3       29.96F
LANCASTER      PTSUNNY   82  71  69 W7        29.98S
ZANESVILLE     CLOUDY    81  70  69 S6        29.96F
NEW PHILLY     PTSUNNY   81  73  76 S6        29.96F
$$



USA.gov is the U.S. government's official web portal to all federal, state and local government web resources and services.